Content
SEND FEEDBACK

Daily
Averages
Monthly
Summary
United States of America

GREENFIELD, MASSACHUSETTS


Home > North America > United States > Massachusetts
Elevation: 58 meters     Latitude: 42 37N     Longitude: 072 33W

WEATHER
 
SELECT A DAY
Number of Records: 212,555;   Date Range: 7/1/96 - 8/30/14
 
SHARE

PRINT THIS DATA

[ ← Previous Day ]
WEATHER ALMANAC - 7 DECEMBER, 2013
[ Next Day → ]
[ °F ]   °C
Weather ElementAverageHighLow
Temperature-0.8 °C1.1 °C (9:43 am)-7.2 °C (11:52 pm)
Dewpoint-2.5 °C0 °C (2:09 am)-8.3 °C (11:52 pm)
Humidity88.9 %100 % (2:09 am)64 % (1:52 pm)
Barometer1023.4 hPa1031.8 hPa (11:52 pm)1018.6 hPa (1:50 am)
Wind Speed5.6 km/h18.5 km/h (11:52 am)
Weather ElementAverage
Visibility13.4 km
Wind DirectionS (175 °)

Weather ElementTotal
Precipitation3.3 mm
Heating Degree Days21.4 (Base 18.3)
Averaged from 38 records on 7 December, 2013
WEATHER CONDITIONS BREAKOUT
WIND DIRECTION BREAKOUT
WEATHER BY HOUR - 7 DECEMBER, 2013
[ °F ]   °C
Local TimeTemperatureDewpointHumidityBarometerVisibilityWind DirectionWind SpeedGust SpeedPrecipitationEventsConditions
12:21 AM0.6 °C-0.6 °C92 %1019.6 hPa1.9 kmNNW (330°)14.8 km/h0.51 mmSnowLight Snow
12:26 AM0.6 °C-0.6 °C92 %1019.6 hPa3.2 kmNNW (340°)14.8 km/h0.51 mmSnowLight Snow
12:32 AM0.6 °C-0.6 °C92 %1019.3 hPa4.8 kmNorth (350°)9.3 km/h0.51 mmSnowLight Snow
12:45 AM0 °C-0.6 °C96 %1019 hPa4 kmCalm0.76 mmSnowLight Snow
12:52 AM0 °C-0.6 °C96 %1019.6 hPa4.8 kmNNW (340°)7.4 km/h0.76 mmSnowLight Snow
1:32 AM0 °C-0.6 °C96 %1019 hPa6.4 kmCalm0 mmSnowLight Snow
1:43 AM0 °C-0.6 °C96 %1019 hPa9.7 kmCalm0 mmOvercast
1:50 AM0 °C-1 °C93 %1018.6 hPa12.9 kmCalm0 mmOvercast
1:52 AM0 °C-1.1 °C92 %1019.3 hPa14.5 kmNorth (350°)5.6 km/h0 mmOvercast
2:00 AM0 °C-0.6 °C96 %1019.6 hPa16.1 kmNNW (330°)7.4 km/hOvercast
2:09 AM0 °C0 °C100 %1019.6 hPa16.1 kmCalmOvercast
2:14 AM0 °C-0.6 °C96 %1020 hPa16.1 kmNW (320°)5.6 km/hOvercast
2:52 AM0 °C-1.1 °C92 %1020 hPa8 kmNNE (20°)7.4 km/hOvercast
3:52 AM0 °C-0.6 °C96 %1020.7 hPa6.4 kmCalm0.25 mmOvercast
4:19 AM0 °C-0.6 °C96 %1020.3 hPa14.5 kmCalm0 mmOvercast
4:52 AM0 °C-1.1 °C92 %1021.3 hPa16.1 kmNW (310°)5.6 km/h0 mmOvercast
5:52 AM0 °C-0.6 °C96 %1021.7 hPa16.1 kmCalmOvercast
6:52 AM0 °C-0.6 °C96 %1022.4 hPa16.1 kmCalmOvercast
7:52 AM0 °C-1.1 °C92 %1023 hPa16.1 kmCalmOvercast
8:52 AM0 °C-2.2 °C85 %1024 hPa16.1 kmNW (320°)9.3 km/hMostly Cloudy
9:43 AM1.1 °C-1.7 °C82 %1023.7 hPa16.1 kmNorth (350°)5.6 km/hOvercast
9:52 AM0.6 °C-1.7 °C85 %1024.4 hPa16.1 kmNNW (330°)5.6 km/hOvercast
10:02 AM0.6 °C-1.1 °C89 %1023.7 hPa16.1 kmCalmOvercast
10:52 AM0.6 °C-2.2 °C82 %1024.7 hPa16.1 kmWest (270°)11.1 km/hOvercast
10:59 AM0.6 °C-2.2 °C82 %1024 hPa16.1 kmWest (280°)14.8 km/hOvercast
11:52 AM0.6 °C-3.9 °C72 %1024.7 hPa16.1 kmWNW (290°)18.5 km/hMostly Cloudy
12:52 PM0.6 °C-3.3 °C75 %1024.7 hPa16.1 kmNW (310°)13 km/hMostly Cloudy
1:52 PM1.1 °C-5 °C64 %1024.4 hPa16.1 kmNW (310°)18.5 km/hClear
2:52 PM0.6 °C-3.9 °C72 %1025.1 hPa16.1 kmWNW (290°)7.4 km/hClear
3:52 PM0 °C-4.4 °C73 %1026.1 hPa16.1 kmWest (280°)9.3 km/hClear
4:52 PM-2.2 °C-5 °C81 %1026.8 hPa16.1 kmWSW (240°)5.6 km/hPartly Cloudy
5:52 PM-3.3 °C-4.4 °C92 %1027.8 hPa16.1 kmWest (280°)5.6 km/hClear
6:52 PM-4.4 °C-5.6 °C91 %1028.4 hPa16.1 kmCalmClear
7:52 PM-5 °C-5.6 °C96 %1029.5 hPa16.1 kmCalmClear
8:52 PM-5.6 °C-6.7 °C92 %1030.1 hPa16.1 kmWest (260°)7.4 km/hClear
9:52 PM-5.6 °C-7.8 °C85 %1030.8 hPa16.1 kmSSE (150°)5.6 km/hClear
10:52 PM-6.1 °C-7.2 °C92 %1031.5 hPa16.1 kmCalmClear
11:52 PM-7.2 °C-8.3 °C92 %1031.8 hPa16.1 kmCalmClear
Hourly data recorded from KORE, located 0 kilometers away from Greenfield, Massachusetts







STORIES FROM OUR PARTNERS